"Pseudo-MPEC" for P11JVDg

Created 2023 Sep 27 19:22:13 UT using Find_Orb

Click here for an explanation of pseudo-MPECs

 
 Astrometry: 
     P11JVDg  C2023 08 20e%MY:xTtDuMs0-fD*]=3ldaFm3bl8,2r3k21E`/th(+OI)Y,+vsQF52
     P11JVDg  C2023 08 20;[xbH`T;lf3%WyjV`QN(6#Q?]8J31!NFyjI:Ed`eQfCP0S60^mtvF52
     P11JVDg  C2023 08 20D9Y6cF?OH?K2d5sPf9M=I-4?'9%S5[[0@TPl@n[9xH,K?V,jK`KdF52
     P11JVDg  C2023 08 20bPqwl4YdIC_WM+xBfk@hxFaT,Bx1(IOkSGhF5!d8EIpr.nnu_i=]F52
     P11JVDg  C2023 08 26i%ku!C`)FiN6q%rdqh4Dv\lKuAstrometry[i3JHXyIV_,)[V?RVF52
     P11JVDg  C2023 08 26y$u=P=+NmA@?b)dbZgsst.QB:aus68ISwwGrq@hM\rTF443,-`0oF52
     P11JVDg  C2023 08 271,cM'\cs_=J6B.80[t\i@pW-V?m])H5up_CVG8NC@S6:jY4:7AqVF51
     P11JVDg  C2023 08 274.9+V(1,xMEu)Uvv)?vILf=FQW]r(m`6,kF4VRf*w;gR7c5V`8(LF51
     P11JVDg  C2023 08 27UyL,0/X8V?N0tPgMpK$1lWVlXp_;redacted;v:nIG$2%ixD+cr6F51
     P11JVDg  C2023 08 27*y`U$rG5NW[aM@V$[JM\N_;D(:Bh#:X-nrj=a?OB=\ZR,-44G)2)F51
     P11JVDg  C2023 08 29wTqTHOanWh8OOW$L7Zis;uYcGIlYSj3$x6.`RVqAnpL$vc_e7T:JF52
     P11JVDg  C2023 08 29V#rZJ+3nskl/y,aU$($$SP]Omvo^P/c`g[@7@-+9yQx^d.F2tyW)F52
     P11JVDg  C2023 08 29cSx]aeDNd?@rJ4K6#:T1V!wPTm.]1;53SwRw%R;ELgI:lKQp?_[uF52
     P11JVDg  C2023 08 29`YLo4R7OB$(?0YxOCCpm]crhY8N:3hM9].M6y#X$_Q4sO+HsN@1[F52
     P11JVDg  C2023 09 04l:*(/rp61TD9DDpU-jN\uP/II)5*v5yZq.,gDrAi1eg'Ai\(YeeUF52
     P11JVDg  C2023 09 04;NXdXmI.\HhSVOuTGwX\d_W-u`g:%v0-TN?HwM^Ep8UE3dl)a$?cF52
     P11JVDg  C2023 09 04Q387TSpPc#_7Ca5JE4t]D?J.eToiMu,$cEo=ReH;C-,fHujm0eQTF51
     P11JVDg  C2023 09 04^UbJ/1m]aa$yWAQvCF?*R_RNPF8;QFy,b#pMqS4qn8p%4!V1Guy5F51
     P11JVDg  C2023 09 04H'ensZy?3`[kV/bcC316]k$^G5+B+^WTfv_0Yx:irIQ5GF7!7;9^F51
     P11JVDg  C2023 09 04*D[6(ljHCl.SHAQd[@6_KK`CrwDcl]Hv[]2OVfr#NKoWjQRjW,P!F51
     P11JVDg  C2023 09 07XMyAs7Cor\j08W\;+bA!t1,kv7Q8/-l+)(uU/1FsJ#U?br`=lK#LF52
     P11JVDg  C2023 09 07qycHY2fHqlQyB,bSR[W/kwrc7i/=m[4Fx6Tls9SM[:5hlKFVw(YhF52
     P11JVDg  C2023 09 07qh+d#?eU0k0272`Pf31HTLsT(iQdH?click\jKGDe#T03Ay'Re:EF52
     P11JVDg  C2023 09 07rL6L.%Ws(P/LU/tOw.9d);c0H)$f(A8T1d=ju6rKEE'.s[7JC+hMF52
     P11JVDg  C2023 09 07FQ7H44=7LKHjhleXekWdL@7-1ahere*OW=ZIeo?fV7XqZJ6li'J-F52
     P11JVDg  C2023 09 07-jD:!_Er4V5I%Trx.^T5Of`c7vVX4?J2Z%rYw`if/IA'GO?VdoB$F52
     P11JVDg  C2023 09 07XY!4:3n(RnfDfyAMC.6l)rmX7Iw`l!?%V-si!vtp6p:c9T++Lx=cF52
     P11JVDg  C2023 09 07:$nCMr*G`Hl[r.S/$GL=I.,ULJWfN%\KRUUyKp=Qt%^]^,0U/jXwF52
     P11JVDg* C2023 09 18gD!DdO#GUV/U[%Wx0+Woi;USqdC)\tpZOnE$qFXVB[7Gli2RF'AbF51
     P11JVDg  C2023 09 18\N3qp]F@=uhT_2er.!/0GxByy#t;9HN9txP@Ho,dIE'6dSD?c.g;F51
     P11JVDg  C2023 09 18P@:SoUl=]`k[6eS^[9#^^*N#]MB[cp2^d?S@fJWLm'!:X!xO!SVxF51
     P11JVDg  C2023 09 18T8a$$EhCxbc#@i?g,Fgac'?Z5G5h$3vOttiqMQ[PqJI80oK2aD*AF51
     P11JVDg  C2023 09 18YRWH0jDLsEFn4=u?R%7WN)gw/9dq7nlqI?0n=6g65P.dJ`iaqqD_F52
     P11JVDg  C2023 09 18ITRg%i5q:6u3iQ70m'Fx50HPTcG%-`N;8;t\QFPAAdAd;2tb:@`OF52
     P11JVDg  C2023 09 21+bY_K'd3gmNZbIpmoF4j00T%BNh\INfT7Em1OH$X(g[R4*xItcY(F52
     P11JVDg  C2023 09 23hU0VlY_XgvWZl8Fv`$TBEitZsL)G5O$q_4=ssO`I-uyA8_EF'E5UF51
     P11JVDg  C2023 09 23%.'./q$^OOwcmp]B1`),('ng:HKOW*7_8FVp^+F\H9,_5=F?#G^qF51
     P11JVDg 2C2023 09 24i?ekj;Iu,bgSr8kW^M%QZe@Qe_Ugam^*2JuW?xR%:s22e$i#+IT?T12
     P11JVDg 2C2023 09 244Oqy4@us%Y,)Uc-o'HB:Z.$1#M@C;o:n]@43mmlyv!bR/1Z1TNkbT12
     P11JVDg 2C2023 09 24FIMIvmlk,9N3tu%ML'j$j!8!UfFq2pE\Fl(lci+co3PC//q[6a_ZT12
     P11JVDg 2C2023 09 24R[r\CQRBgRiIDR8P;b=E_LT0aEK!%hS;:qw])ZC[ImZ!_dpG';aTT12
     P11JVDg  C2023 09 25oqo:CpteI5%AfwovA*Ehd'(JO0ej5a3)^*WI-lN(2E'A!fAC*uJ3F51
     P11JVDg  C2023 09 25FSweC;T_(8CfomtuVNt60kv74Zf9mfljRj_,OBDL.ns\0o9^iOH_F51
     P11JVDg  C2023 09 25uxP/Y=]Iq590vBRtn;hhwx7j7Zt_to^JXqA[w%*HnwYj?e?ga/X:F51
     P11JVDg  C2023 09 25Q[vjUE(%$S!_QZCyNt2s9RlZ2SDjmDmx%Ci4iK:G%o`VO)/W#vPpF51
     P11JVDg  C2023 09 26NB*`PN+CsxBRuegd6[1o*q%YT5j11A[_=fymn*7A\3tXx;vhvb^3F51
     P11JVDg  C2023 09 26c9hR)Sc$5v!ViI`ZkCGeUEQ4V9L6M5OohX+77b3lX7-!^LV^,bLbF51
     P11JVDg  C2023 09 26!xx(gMQ/_T;PEWc8O@T-W;cog?Ss'%5]W3?E:qTS%I*Jmb/3p=D1F52
     P11JVDg  C2023 09 26nRy!%'':8']]u.lO3;Y^v+nqHl\(`i(bncCc[[jsf'e;:NR.SbV$F52
     P11JVDg  C2023 09 26dI:mc)O%RlH;M^+EWKLB@gHsYWLAg*_jERT([YZM\uTt[Q,LMMm)F51
     P11JVDg  C2023 09 26Ogb`m]NxCCOr%e,`lB[GpGG#Mt*AWY.t@!WHSTfP^9VIy;AQb]HcF52
     P11JVDg  C2023 09 26^%72/2iBtcforOAd)OQY3D5\C+R]:U+X90oKs[:;UXX*SB3(MGK\F51
     P11JVDg  C2023 09 26Rnh*2%yA0WZt+ma.X@1=hmD5cpq9QyL(V-6lIwlXm$RHio6]nKFdF52
     P11JVDg  C2023 09 27v(6=3.`7Mmmc_=;,O.0'VQl7E=7c:Tk*qexplanationYl3?):fQF51
     P11JVDg  C2023 09 27$%n?eC'v$8P/*A.Xqp2=T)PFqI*15[inObZLj0*(::f[B9NlLEF/F52
     P11JVDg  C2023 09 27uGDQl3f5[ox;AhK%J?sjv3:$%fIOD'0BXUxk6mi,h11m5QgQ=9kAF52
     P11JVDg  C2023 09 27r1DRahYqdkMsir/\o$M'r=29C=06/+btO;5qN`[@gTc`=3$OnvFZF51
     P11JVDg  C2023 09 27iiwyY`*B[Y]JPe1e+xso^7I:$MDL$j,mZ)GmDQ5%eL)o8n5Cm.l+F52
     P11JVDg  C2023 09 27EoF#CjOG45nn?obcGQBf$%5tJ9AY`XU\RpeS_!Stqo7r!3^%8NufF51
     P11JVDg  C2023 09 27Rh-1(hD8nZD?Ex$FT1tK[1D\x\;kdjW=X?(;-L-!,Qt,)x,]0'/kF52
     P11JVDg  C2023 09 27l-'kCB\.2mKD2S9sZFOfxIr[%?2`NWR5^wXZ3fF'kDmy^gY*y\?LF51

Station data:
(F51) Pan-STARRS 1, Haleakala  (N20.707234 W156.255910)  US/Hawaii.
   Observers J. Bulger, T. Lowe, A. Schultz, M. Willman. Measurers K.
   Chambers, S. Chastel, T. de Boer, L. Denneau, J. Fairlamb, H. Flewelling,
   M. Huber, C.-C. Lin, E. Magnier, Y. Ramanjooloo, R. Wainscoat, R. Weryk.
   1.8-m Ritchey-Chrétien + CCD.
(F52) Pan-STARRS 2, Haleakala  (N20.707382 W156.255910)  US/Hawaii.
   Observers J. Bulger, T. Dukes, T. Lowe, A. Schultz, M. Willman. Measurers
   K. Chambers, S. Chastel, T. de Boer, L. Denneau, J. Fairlamb, H.
   Flewelling, M. Huber, C.-C. Lin, E. Magnier, Y. Ramanjooloo, R. Wainscoat,
   R. Weryk. 1.8-m Ritchey-Chrétien + CCD.
(T12) Mauna Kea-UH/Tholen NEO Follow-Up (2.24-m)  (N19.822991 W155.469434)
   US/Hawaii.  Observer Y. Ramanjooloo. 2.24-m f/10.1 University of Hawaii
   reflector.

Orbital elements:  P11JVDg
   Perihelion 2029 Jun 13.91785 +/- 31.3 TT = 22:01:41 (JD 2462301.41785)
Epoch 2023 Sep 27.0 TT = JDT 2460214.5   Ur: 0.5276              AutoNEOCP
M 356.50511916 +/- 0.055            (J2000 ecliptic)
n   0.00167466 +/- 4.82e-5          Peri.  185.90197 +/- 0.55
a  70.2292509 +/- 1.35              Node   171.33538 +/- 0.027
e   0.7218478 +/- 0.00591           Incl.   96.76110 +/- 0.06
P 588.54                   H  7.90  G  0.15   U  6.2
q 19.5344202 +/- 0.0446    Q 120.924081 +/- 2.74
From 61 observations 2023 Aug. 20-Sept. 27; mean residual 0".10
Residuals in arcseconds: 
230820 F52  .11-  .04-    230907 F52  .06-  .02-    230925 F51  .07+  .03+    
230820 F52  .01+  .06-    230907 F52  .04-  .05-    230925 F51  .04-  .06-    
230820 F52  .06-  .03-    230907 F52  .05-  .03-    230925 F51  .24-  .07-    
230820 F52  .02-  .01+    230907 F52  .07-  .04+    230926 F51  .07-  .03-    
230826 F52  .08+  .03+    230907 F52  .12-  .02+    230926 F51  .05-  .05+    
230826 F52  .00   .21+    230907 F52  .02-  .01-    230926 F52  .06-  .02+    
230827 F51  .10+  .00     230907 F52  .07-  .00     230926 F52  .02-  .02+    
230827 F51  .20+  .02-    230918 F51  .05-  .13+    230926 F51  .12-  .00     
230827 F51  .04+  .09+    230918 F51  .10-  .02+    230926 F52  .08-  .07+    
230827 F51  .12-  .07-    230918 F51  .07-  .03+    230926 F51  .13-  .02+    
230829 F52  .05-  .03+    230918 F51  .09-  .09+    230926 F52  .00   .01-    
230829 F52  .04-  .05+    230918 F52  .46+  .05+    230927 F51  .26+  .02-    
230829 F52  .00   .03+    230918 F52  .17-  .01+    230927 F52  .22+  .09-    
230829 F52  .03-  .01-    230921 F52  .14+  .18-    230927 F52  .41+  .07-    
230904 F52  .14+  .18-    230923 F51  .01+  .05-    230927 F51  .04-  .04+    
230904 F52  .11+  .11-    230923 F51  .02-  .09+    230927 F52  .03+  .03-    
230904 F51  .02+  .04+    230924 T12  .05-  .01+    230927 F51  .06+  .06-    
230904 F51  .07-  .01-    230924 T12  .01-  .01+    230927 F52  .04-  .07+    
230904 F51  .02-  .07-    230924 T12  .01-  .01+    230927 F51  .01+  .04+    
230904 F51  .03+  .03+    230924 T12  .01-  .02+    
230907 F52  .06-  .01-    230925 F51  .19-  .14-    

Ephemerides (geocentric):
Date (UTC) HH   RA             Dec           delta  r     elong  mag " sig PA
---- --------  ------------   ------------  ------ ------ -----  --- --------
2023 09 27 19  22 55 55.440   +20 32 18.37  19.803 20.701 153.0 21.1 .026 125
2023 09 27 20  22 55 55.032   +20 32 12.74  19.803 20.701 153.0 21.1 .026 124
2023 09 27 21  22 55 54.625   +20 32 07.11  19.803 20.701 152.9 21.1 .026 124
2023 09 27 22  22 55 54.217   +20 32 01.48  19.803 20.701 152.9 21.1 .027 124
2023 09 27 23  22 55 53.810   +20 31 55.85  19.803 20.701 152.9 21.1 .027 124
2023 09 28 00  22 55 53.403   +20 31 50.22  19.803 20.701 152.9 21.1 .027 124
2023 09 28 01  22 55 52.996   +20 31 44.58  19.804 20.701 152.9 21.1 .028 124
2023 09 28 02  22 55 52.589   +20 31 38.95  19.804 20.701 152.9 21.1 .028 124
2023 09 28 03  22 55 52.182   +20 31 33.31  19.804 20.701 152.9 21.1 .028 124
2023 09 28 04  22 55 51.775   +20 31 27.67  19.804 20.701 152.8 21.1 .029 124
2023 09 28 05  22 55 51.369   +20 31 22.03  19.804 20.700 152.8 21.1 .029 124
2023 09 28 06  22 55 50.963   +20 31 16.38  19.804 20.700 152.8 21.1 .029 124
2023 09 28 07  22 55 50.557   +20 31 10.74  19.804 20.700 152.8 21.1 .030 123
2023 09 28 08  22 55 50.150   +20 31 05.09  19.804 20.700 152.8 21.1 .030 123
2023 09 28 09  22 55 49.745   +20 30 59.45  19.804 20.700 152.8 21.1 .030 123
2023 09 28 10  22 55 49.339   +20 30 53.80  19.804 20.700 152.8 21.1 .030 123
2023 09 28 11  22 55 48.933   +20 30 48.15  19.804 20.700 152.7 21.1 .031 123
2023 09 28 12  22 55 48.528   +20 30 42.49  19.804 20.700 152.7 21.1 .031 123
2023 09 28 13  22 55 48.123   +20 30 36.84  19.805 20.700 152.7 21.1 .031 123
2023 09 28 14  22 55 47.717   +20 30 31.19  19.805 20.700 152.7 21.1 .032 123
2023 09 28 15  22 55 47.312   +20 30 25.53  19.805 20.700 152.7 21.1 .032 123
